�N����,����,�~����,�C��,���x,�C��,����,���ϕ���,�ő�u�ԕ���,�ő厞����,���˗�,�I�_���x,�n�����x,�ő啗���N��,DTYPE
"16/05/21","00:10",0.0,15.9,79.8,1012.6,289.0,1.0,1.7,313.8,0.00,12.5,19.0,"00:09:20",1
"16/05/21","00:20",0.0,15.9,80.4,1012.1,281.5,1.0,1.7,313.9,0.00,12.6,19.2,"00:11:12",1
"16/05/21","00:30",0.0,15.8,80.9,1012.1,302.3,1.1,1.6,303.0,0.00,12.6,19.0,"00:24:56",1
"16/05/21","00:40",0.0,15.6,82.0,1011.9,302.0,1.0,1.4,306.2,0.00,12.6,19.0,"00:31:12",1
"16/05/21","00:50",0.0,15.5,83.2,1012.3,303.1,1.0,1.6,326.7,0.00,12.7,18.8,"00:48:08",1
"16/05/21","01:00",0.0,15.4,84.3,1011.9,307.7,1.1,1.6,337.0,0.00,12.8,18.7,"00:56:32",1
"16/05/21","01:10",0.0,15.4,85.0,1011.9,304.5,1.0,1.7,338.6,0.00,12.9,18.9,"01:00:08",1
"16/05/21","01:20",0.0,15.2,85.6,1011.9,306.1,1.0,1.3,309.8,0.00,12.8,18.6,"01:10:08",1
"16/05/21","01:30",0.0,15.2,86.4,1012.1,303.2,1.1,1.4,306.5,0.00,13.0,18.5,"01:20:40",1
"16/05/21","01:40",0.0,15.1,86.5,1012.1,297.8,1.0,1.2,322.4,0.00,12.9,18.6,"01:38:08",1
"16/05/21","01:50",0.0,15.0,87.3,1012.1,299.9,0.8,1.3,323.0,0.00,12.9,18.5,"01:40:56",1
"16/05/21","02:00",0.0,14.8,88.2,1012.1,287.4,0.8,1.2,310.6,0.00,12.9,18.6,"01:56:48",1
"16/05/21","02:10",0.0,14.7,88.8,1012.3,302.4,0.8,1.3,312.8,0.00,12.9,18.3,"02:09:44",1
"16/05/21","02:20",0.0,14.5,89.4,1012.1,298.2,0.8,1.4,319.4,0.00,12.8,18.3,"02:16:16",1
"16/05/21","02:30",0.0,14.5,90.2,1012.1,307.8,1.2,1.4,321.7,0.00,13.0,18.3,"02:21:04",1
"16/05/21","02:40",0.0,14.5,90.6,1012.3,303.6,1.0,1.4,303.5,0.00,13.0,18.1,"02:31:44",1
"16/05/21","02:50",0.0,14.5,90.7,1012.6,308.4,1.1,1.7,314.8,0.00,13.0,18.2,"02:43:44",1
"16/05/21","03:00",0.0,14.4,90.8,1012.3,298.0,0.7,1.2,314.7,0.00,13.0,18.2,"02:50:40",1
"16/05/21","03:10",0.0,14.5,91.0,1012.1,284.7,0.8,1.1,263.9,0.00,13.1,18.0,"03:04:32",1
"16/05/21","03:20",0.0,14.4,91.1,1012.3,297.9,1.2,2.0,318.2,0.00,13.0,18.1,"03:19:12",1
"16/05/21","03:30",0.0,14.4,91.3,1012.6,306.8,1.3,1.9,311.5,0.00,13.0,18.0,"03:20:48",1
"16/05/21","03:40",0.0,14.4,91.3,1012.3,300.4,1.2,1.7,331.1,0.00,13.0,18.1,"03:31:04",1
"16/05/21","03:50",0.0,14.2,91.3,1012.1,295.8,1.1,1.4,311.7,0.00,12.8,18.0,"03:43:20",1
"16/05/21","04:00",0.0,14.0,91.7,1012.1,297.7,1.1,1.6,308.2,0.00,12.7,17.8,"03:54:40",1
"16/05/21","04:10",0.0,13.9,92.4,1012.3,298.0,1.2,1.7,314.5,0.00,12.7,17.8,"04:05:12",1
"16/05/21","04:20",0.0,14.0,92.8,1012.3,302.7,1.5,1.9,317.6,0.00,12.9,17.7,"04:14:32",1
"16/05/21","04:30",0.0,13.9,92.6,1012.3,289.5,1.1,1.2,285.0,0.00,12.8,17.8,"04:20:16",1
"16/05/21","04:40",0.0,13.8,92.7,1012.6,296.0,1.2,1.6,317.1,0.00,12.7,17.7,"04:36:40",1
"16/05/21","04:50",0.0,13.7,93.0,1012.8,299.4,1.2,1.7,324.4,0.00,12.6,17.4,"04:46:40",1
"16/05/21","05:00",0.0,13.7,93.5,1012.3,307.1,1.5,2.0,318.9,0.00,12.7,17.5,"04:57:36",1
"16/05/21","05:10",0.0,13.7,93.6,1012.8,303.7,1.3,1.7,325.7,0.00,12.7,17.5,"05:02:40",1
"16/05/21","05:20",0.0,13.7,93.9,1012.6,301.1,1.2,1.9,335.6,0.00,12.8,17.3,"05:16:00",1
"16/05/21","05:30",0.0,14.1,94.2,1012.6,310.6,1.5,2.1,317.8,0.00,13.2,17.4,"05:24:24",1
"16/05/21","05:40",0.0,14.5,93.5,1012.6,307.0,1.3,2.2,333.3,0.00,13.5,17.6,"05:34:40",1
"16/05/21","05:50",0.0,15.1,92.6,1013.0,314.5,1.6,2.6,316.7,0.01,14.0,17.4,"05:43:36",1
"16/05/21","06:00",0.0,15.7,90.6,1013.0,321.0,1.7,2.9,330.9,0.02,14.2,17.4,"05:59:12",1
"16/05/21","06:10",0.0,16.3,87.6,1013.0,322.3,1.7,2.5,322.8,0.03,14.3,17.4,"06:00:08",1
"16/05/21","06:20",0.0,16.9,84.6,1013.0,326.6,1.3,3.9,349.5,0.04,14.3,17.5,"06:12:08",1
"16/05/21","06:30",0.0,17.6,81.0,1013.3,339.3,1.0,2.0,345.3,0.06,14.3,17.7,"06:29:36",1
"16/05/21","06:40",0.0,17.9,80.8,1013.3,349.1,1.2,2.2,340.8,0.09,14.6,17.6,"06:35:36",1
"16/05/21","06:50",0.0,18.6,78.9,1013.3,324.4,0.8,1.8,348.6,0.12,14.9,17.8,"06:46:48",1
"16/05/21","07:00",0.0,18.9,76.1,1013.8,289.6,1.0,1.7,269.6,0.14,14.6,17.9,"06:56:00",1
"16/05/21","07:10",0.0,19.6,72.8,1013.3,305.3,0.7,1.4,335.5,0.17,14.6,18.2,"07:04:00",1
"16/05/21","07:20",0.0,19.9,73.6,1013.5,337.6,1.5,3.1,338.0,0.19,15.1,18.3,"07:14:16",1
"16/05/21","07:30",0.0,20.7,70.2,1013.0,345.0,0.8,2.2,353.1,0.22,15.1,18.3,"07:21:28",1
"16/05/21","07:40",0.0,21.0,69.2,1013.3,353.1,1.1,2.0,356.0,0.25,15.2,18.4,"07:32:00",1
"16/05/21","07:50",0.0,21.4,68.9,1012.8,336.2,0.8,2.5,352.7,0.27,15.5,18.8,"07:43:12",1
"16/05/21","08:00",0.0,22.0,64.9,1012.6,345.9,0.7,1.8,39.7,0.30,15.1,18.9,"07:51:44",1
"16/05/21","08:10",0.0,22.3,64.8,1012.6,334.3,0.5,2.1,17.9,0.32,15.4,19.1,"08:05:44",1
"16/05/21","08:20",0.0,22.3,64.4,1012.3,1.5,1.1,2.4,347.6,0.34,15.3,19.5,"08:17:36",1
"16/05/21","08:30",0.0,23.4,63.7,1012.1,61.7,0.5,1.4,352.7,0.37,16.2,19.9,"08:25:04",1
"16/05/21","08:40",0.0,22.8,62.6,1012.1,152.8,1.2,2.5,156.6,0.39,15.3,20.1,"08:31:44",1
"16/05/21","08:50",0.0,23.2,62.2,1011.6,357.0,1.0,2.0,349.0,0.41,15.6,20.2,"08:45:36",1
"16/05/21","09:00",0.0,23.6,58.9,1011.6,355.0,0.7,2.0,344.3,0.43,15.1,20.7,"08:53:12",1
"16/05/21","09:10",0.0,24.0,57.1,1011.4,155.9,0.6,1.3,232.8,0.45,15.0,20.8,"09:04:08",1
"16/05/21","09:20",0.0,24.4,56.2,1010.9,18.5,0.7,2.5,23.3,0.47,15.2,21.0,"09:13:28",1
"16/05/21","09:30",0.0,24.9,53.6,1011.2,23.0,0.7,2.0,6.4,0.49,14.9,21.5,"09:22:00",1
"16/05/21","09:40",0.0,25.2,54.2,1010.7,9.0,0.8,2.5,40.5,0.50,15.3,21.7,"09:31:12",1
"16/05/21","09:50",0.0,25.6,52.4,1010.7,17.3,0.8,2.1,336.6,0.52,15.2,21.8,"09:47:36",1
"16/05/21","10:00",0.0,25.7,50.6,1010.9,42.9,1.0,2.6,333.1,0.53,14.7,22.3,"09:57:28",1
"16/05/21","10:10",0.0,26.0,52.4,1010.9,42.8,1.2,2.4,16.8,0.54,15.5,22.4,"10:00:40",1
"16/05/21","10:20",0.0,26.1,46.4,1010.7,76.5,1.0,2.9,123.5,0.55,13.8,22.7,"10:15:12",1
"16/05/21","10:30",0.0,27.0,46.7,1010.7,143.3,1.3,3.4,206.1,0.57,14.7,23.1,"10:27:04",1
"16/05/21","10:40",0.0,26.8,48.2,1010.2,130.2,1.6,3.4,200.0,0.57,15.0,23.4,"10:39:12",1
"16/05/21","10:50",0.0,27.2,44.2,1010.0,127.9,1.2,3.1,154.8,0.58,14.0,23.6,"10:40:32",1
"16/05/21","11:00",0.0,27.6,43.2,1010.0,160.2,1.2,2.6,193.7,0.59,14.0,24.2,"10:52:48",1
"16/05/21","11:10",0.0,27.4,44.7,1010.0,207.3,1.8,4.2,229.5,0.59,14.4,24.2,"11:03:12",1
"16/05/21","11:20",0.0,27.5,42.2,1009.7,220.7,1.8,4.3,212.1,0.60,13.6,24.6,"11:11:12",1
"16/05/21","11:30",0.0,28.3,39.9,1009.7,202.9,2.0,4.7,218.0,0.61,13.4,24.9,"11:20:02",1
"16/05/21","11:40",0.0,28.3,38.6,1009.5,191.3,3.1,5.1,185.1,0.61,12.9,25.0,"11:39:12",1
"16/05/21","11:50",0.0,28.6,37.3,1009.3,202.5,2.7,4.4,222.0,0.60,12.7,25.0,"11:45:12",1
"16/05/21","12:00",0.0,29.2,33.5,1009.3,185.2,2.3,5.5,202.1,0.60,11.6,25.5,"11:59:12",1
"16/05/21","12:10",0.0,29.6,32.9,1009.0,213.0,2.6,5.6,206.7,0.60,11.6,25.6,"12:04:08",1
"16/05/21","12:20",0.0,30.2,26.0,1009.3,353.3,1.8,5.2,344.2,0.59,8.6,25.6,"12:14:32",1
"16/05/21","12:30",0.0,30.5,28.1,1009.5,26.6,1.1,2.7,64.4,0.58,10.0,25.9,"12:24:16",1
"16/05/21","12:40",0.0,30.1,24.5,1009.5,341.9,1.3,3.4,355.5,0.59,7.7,25.7,"12:33:12",1
"16/05/21","12:50",0.0,30.5,22.8,1009.3,4.6,2.0,4.0,342.0,0.58,7.0,25.8,"12:45:12",1
"16/05/21","13:00",0.0,30.3,23.1,1009.3,14.2,2.5,4.1,11.9,0.57,7.0,25.6,"12:51:36",1
"16/05/21","13:10",0.0,30.3,25.1,1009.0,348.5,2.0,4.4,3.4,0.57,8.2,25.4,"13:03:52",1
"16/05/21","13:20",0.0,30.5,25.6,1008.8,356.8,2.0,5.1,25.4,0.56,8.7,25.3,"13:18:16",1
"16/05/21","13:30",0.0,30.2,22.6,1008.8,357.5,2.6,5.5,12.4,0.55,6.6,25.2,"13:24:40",1
"16/05/21","13:40",0.0,30.4,23.3,1008.6,12.4,2.5,4.9,36.5,0.54,7.2,25.1,"13:33:04",1
"16/05/21","13:50",0.0,30.4,23.2,1008.3,10.3,2.5,5.6,352.3,0.52,7.1,24.9,"13:45:04",1
"16/05/21","14:00",0.0,30.6,25.9,1008.6,5.0,2.2,5.8,348.8,0.52,8.9,25.1,"13:51:04",1
"16/05/21","14:10",0.0,30.7,27.8,1008.1,358.4,2.1,5.1,22.1,0.50,10.0,25.1,"14:00:56",1
"16/05/21","14:20",0.0,30.4,27.5,1008.1,352.1,2.2,4.4,356.6,0.49,9.6,25.2,"14:13:20",1
"16/05/21","14:30",0.0,29.7,27.2,1008.1,339.8,2.1,4.5,345.7,0.47,8.9,25.1,"14:26:08",1
"16/05/21","14:40",0.0,29.7,28.8,1007.8,332.9,1.8,4.2,328.1,0.45,9.7,24.9,"14:36:16",1
"16/05/21","14:50",0.0,29.8,28.8,1008.1,341.6,1.8,4.1,357.8,0.42,9.8,25.3,"14:42:24",1
"16/05/21","15:00",0.0,29.8,28.3,1007.6,347.6,1.6,3.6,351.1,0.41,9.5,25.3,"14:53:52",1
"16/05/21","15:10",0.0,29.3,27.5,1007.6,359.5,2.5,5.2,5.0,0.39,8.7,25.0,"15:08:56",1
"16/05/21","15:20",0.0,29.0,28.7,1007.4,345.7,2.1,5.2,12.9,0.36,9.1,25.2,"15:11:28",1
"16/05/21","15:30",0.0,28.5,28.9,1007.4,349.3,2.5,6.6,351.0,0.33,8.7,25.1,"15:27:12",1
"16/05/21","15:40",0.0,28.1,30.2,1007.4,346.2,2.7,5.8,323.8,0.30,9.0,25.0,"15:39:52",1
"16/05/21","15:50",0.0,27.8,31.8,1007.1,336.0,2.2,4.9,343.4,0.27,9.6,24.9,"15:42:16",1
"16/05/21","16:00",0.0,27.4,30.3,1007.1,347.8,2.5,4.9,357.0,0.25,8.5,24.7,"15:53:36",1
"16/05/21","16:10",0.0,27.0,30.5,1006.9,337.5,2.1,4.8,342.4,0.24,8.2,24.6,"16:07:52",1
"16/05/21","16:20",0.0,27.1,30.7,1007.4,358.9,2.2,5.2,354.0,0.22,8.4,24.7,"16:10:32",1
"16/05/21","16:30",0.0,27.0,31.9,1007.6,346.1,2.1,5.7,345.2,0.19,8.9,24.6,"16:21:04",1
"16/05/21","16:40",0.0,26.8,34.2,1007.6,343.6,1.3,3.5,8.3,0.17,9.8,24.5,"16:30:32",1
"16/05/21","16:50",0.0,26.6,37.1,1007.4,324.5,0.6,1.8,14.5,0.15,10.8,24.5,"16:40:08",1
"16/05/21","17:00",0.0,25.9,36.2,1007.1,320.5,1.2,3.1,342.1,0.10,9.8,24.5,"16:52:48",1
"16/05/21","17:10",0.0,25.3,36.5,1007.8,335.9,1.5,4.0,334.8,0.05,9.4,24.1,"17:07:20",1
"16/05/21","17:20",0.0,25.0,38.0,1007.8,311.0,1.0,2.4,346.7,0.05,9.7,24.0,"17:12:40",1
"16/05/21","17:30",0.0,24.6,37.3,1008.1,296.4,1.0,2.4,20.2,0.04,9.1,24.0,"17:28:08",1
"16/05/21","17:40",0.0,24.3,37.4,1008.1,308.5,1.2,2.1,309.4,0.03,8.9,23.7,"17:31:28",1
"16/05/21","17:50",0.0,23.9,38.7,1008.1,322.4,1.6,3.4,346.7,0.03,9.0,23.7,"17:46:40",1
"16/05/21","18:00",0.0,23.7,37.8,1008.1,321.0,1.8,4.1,342.3,0.02,8.5,23.7,"17:59:36",1
"16/05/21","18:10",0.0,23.4,38.7,1008.6,335.6,1.8,4.1,332.3,0.01,8.6,23.4,"18:02:24",1
"16/05/21","18:20",0.0,23.0,39.7,1008.6,320.0,1.7,4.0,326.5,0.01,8.6,23.2,"18:15:44",1
"16/05/21","18:30",0.0,22.6,41.1,1008.6,330.3,1.7,3.3,345.0,0.00,8.8,23.1,"18:20:02",1
"16/05/21","18:40",0.0,22.3,41.3,1008.8,322.0,1.8,4.1,349.7,0.00,8.6,23.1,"18:33:28",1
"16/05/21","18:50",0.0,22.0,41.9,1008.8,315.0,1.8,3.6,337.1,0.00,8.5,22.8,"18:43:52",1
"16/05/21","19:00",0.0,21.8,42.6,1009.3,351.3,2.2,3.6,342.4,0.00,8.6,22.7,"18:57:28",1
"16/05/21","19:10",0.0,21.7,42.8,1009.3,350.1,2.2,4.8,342.7,0.00,8.6,22.3,"19:09:52",1
"16/05/21","19:20",0.0,21.5,42.8,1009.5,346.7,2.2,4.7,340.2,0.00,8.4,22.3,"19:19:28",1
"16/05/21","19:30",0.0,21.1,44.3,1009.5,353.6,2.1,4.1,345.2,0.00,8.5,22.2,"19:28:40",1
"16/05/21","19:40",0.0,20.8,44.7,1009.7,346.8,2.1,4.1,335.4,0.00,8.4,22.0,"19:39:04",1
"16/05/21","19:50",0.0,20.7,46.1,1009.7,337.6,1.8,4.2,355.8,0.00,8.7,21.9,"19:49:44",1
"16/05/21","20:00",0.0,20.4,48.3,1010.0,331.7,2.1,3.9,337.7,0.00,9.2,21.5,"19:50:16",1
"16/05/21","20:10",0.0,20.1,50.7,1010.7,318.2,1.7,2.6,318.8,0.00,9.6,21.6,"20:08:08",1
"16/05/21","20:20",0.0,20.0,52.4,1010.7,323.1,1.8,3.3,331.8,0.00,10.0,21.5,"20:11:04",1
"16/05/21","20:30",0.0,19.9,54.5,1010.7,327.5,2.1,4.4,355.9,0.00,10.5,21.4,"20:29:52",1
"16/05/21","20:40",0.0,19.8,55.0,1010.9,324.4,2.1,3.3,336.4,0.00,10.5,21.2,"20:33:20",1
"16/05/21","20:50",0.0,19.7,56.8,1010.7,326.1,2.3,5.6,348.7,0.00,10.9,21.2,"20:45:36",1
"16/05/21","21:00",0.0,19.6,58.1,1011.2,326.3,2.5,5.6,341.1,0.00,11.2,21.0,"20:51:12",1
"16/05/21","21:10",0.0,19.3,59.8,1010.9,327.3,2.2,4.8,335.8,0.00,11.3,21.1,"21:07:52",1
"16/05/21","21:20",0.0,19.1,61.2,1011.2,334.3,2.5,5.0,345.1,0.00,11.5,20.7,"21:19:28",1
"16/05/21","21:30",0.0,19.0,62.2,1011.2,330.2,2.5,5.0,349.9,0.00,11.7,20.6,"21:24:58",1
"16/05/21","21:40",0.0,18.7,63.6,1011.4,330.6,2.3,4.7,345.1,0.00,11.7,20.8,"21:30:32",1
"16/05/21","21:50",0.0,18.4,65.2,1011.4,323.8,2.0,4.1,331.8,0.00,11.8,20.6,"21:46:48",1
"16/05/21","22:00",0.0,18.2,66.4,1011.4,332.9,2.1,4.0,350.3,0.00,11.9,20.6,"21:59:08",1
"16/05/21","22:10",0.0,18.0,67.2,1011.9,330.1,2.3,4.8,346.0,0.00,11.9,20.4,"22:07:16",1
"16/05/21","22:20",0.0,18.0,67.8,1011.6,333.2,2.5,4.4,342.2,0.00,12.0,20.3,"22:17:44",1
"16/05/21","22:30",0.0,17.8,68.5,1011.9,331.9,2.1,3.9,335.7,0.00,12.0,20.1,"22:20:32",1
"16/05/21","22:40",0.0,17.7,69.1,1011.9,334.4,2.3,5.5,339.9,0.00,12.0,20.2,"22:38:48",1
"16/05/21","22:50",0.0,17.5,70.0,1012.1,324.3,1.6,3.9,344.8,0.00,12.0,20.1,"22:44:00",1
"16/05/21","23:00",0.0,17.5,70.9,1012.1,332.5,2.2,3.7,346.5,0.00,12.2,20.1,"22:55:36",1
"16/05/21","23:10",0.0,17.3,70.6,1012.1,331.5,1.8,3.9,342.5,0.00,12.0,19.9,"23:02:32",1
"16/05/21","23:20",0.0,17.2,70.9,1012.3,312.9,1.5,2.6,318.5,0.00,11.9,20.0,"23:14:16",1
"16/05/21","23:30",0.0,17.0,71.2,1012.6,291.7,1.1,2.2,328.2,0.00,11.8,19.7,"23:22:40",1
"16/05/21","23:40",0.0,16.7,72.4,1012.1,295.1,1.1,1.9,322.7,0.00,11.8,19.7,"23:32:00",1
"16/05/21","23:50",0.0,16.5,73.5,1011.9,297.0,1.2,2.2,324.5,0.00,11.8,19.4,"23:43:04",1
"16/05/21","24:00",0.0,16.3,74.0,1012.1,287.2,1.1,1.6,301.4,0.00,11.7,19.5,"23:59:28",1
